STARLINK-4672, 53592

Orbit data source: Space-Track

STARLINK-4672, 53592 is a payload satellite owned by SpaceX/Seattle (US) in LEO that was launched on Sun, 28 Aug 2022 UTC via an FALCON 9 launch vehicle from the Air Force Eastern Test Range (AFETR). Payload-class satellites include a variety of spacecraft equipped with specific instruments for various scientific and technological missions. These include communications satellites like Starlink; space stations such as the ISS; scientific satellites like the Hubble; Earth observation satellites from companies like Planet Labs, Umbra, and HawkEye 360; GPS; miniature CubeSats for education and research; and military/defense satellites.

Loading next visibility...
Identifier
53592, 2022-104E
Orbit
LEO
Country
Flag of USUS
Related business
Manufacturer
SpaceX/Seattle
Mission
Operational Commercial Communications
Bus & Motor
STARLINK, Unknown motor
Mass
300 kg wet, ~290 kg dry
Launch date (UTC)
2022-08-28 (3 years ago)
Launch vehicle
FALCON 9
Launch site
Air Force Eastern Test Range (AFETR)
Object type
Payload
Rocket body
Debris
Shape & HBR
Box + 1 Pan, 10.1 m
Radar Cross Section
13.562 m², Large (>1 m²)

Expand to show TLE details & history
Last TLE update: 1 day ago

TLE from 1 day ago
0 STARLINK-4672
1 53592U 22104E   25286.70825222 -.00000621  00000-0 -20924-4 0  9996
2 53592  53.2154 184.0894 0001499  82.7375 277.3787 15.08825613173758
Epoch: 2025-10-13T16:59Z
TLE epoch observation values (Epoch: 2025-10-13T16:59:52.991Z)
Latitude
-0.00008°
Longitude
-93.38861°
Altitude
540.552 km
Speed
7.593 km/s
True Right ascension
12h 16m 21s
True Declination
0° 00' 00"
Sunlit
Object was in daylight at epoch
Visualization orbit readout
Latitude
Unknown
Longitude
Unknown
Altitude
Unknown
Speed
Unknown
Apparent Right ascension
Unknown
Apparent Declination
Unknown
Sunlit
N/A
Visualization observer readout
Local Sidereal Time
13:50:33
Azimuth
Unknown
Elevation
Unknown
Doppler factor
Unknown
Orbital elements
Apogee altitude
541.07 km
Perigee altitude
538.996 km
Semi-major axis
6,918.17 km
Eccentricity
0.00015
Inclination
53.2154°
RAAN
184.0894°
Arg. of periapsis
82.7375°
True anomaly
277.36166°
Mean anomaly
277.3787°
Eccentric anomaly
277.37018°
Mean motion
3.77187 °/min
Orbital period
95.44 mins
BSTAR
-0.000020924
Loading maneuver chart data...
Computing Atmospheric mass density...
Loading historical data...
Loading historical data...
Loading historical data...
Loading historical data...
Loading historical data...
Loading historical data...
Loading historical data...

Documentation

Showing up to 5 results
|